WetterOnline ( http://www.wetteronline.de )

Wetter aktuell Bonn

Aktuelles Wetter: Roleber (162m)

6-stündlich | Neueste Meldungen
Ortszeit Temperatur Wetter
Mi, 12.12. 7:00 2.1° C bewölkt
Mi, 12.12. 1:00 1.7° C bedeckt
Di, 11.12. 19:00 3.3° C bewölkt
Di, 11.12. 13:00 4.0° C bedeckt
Di, 11.12. 7:00 3.1° C bedeckt
Di, 11.12. 1:00 3.9° C bedeckt
Mo, 10.12. 19:00 3.7° C wolkig
Mo, 10.12. 13:00 4.1° C Regen
Ortszeit Temperatur Wetter
Mi, 12.12. 9:00 2.2° C Nebel
Mi, 12.12. 8:50 2.2° C Nebel
Mi, 12.12. 8:40 2.1° C bedeckt
Mi, 12.12. 8:30 2.1° C bedeckt
Mi, 12.12. 8:20 2.1° C bedeckt
Mi, 12.12. 8:10 2.2° C bedeckt
Mi, 12.12. 8:00 2.0° C bedeckt
Mi, 12.12. 7:30 2.0° C Nebel
Mi, 12.12. 7:00 2.1° C bewölkt
Mi, 12.12. 6:30 2.1° C bedeckt
Mi, 12.12. 6:00 2.2° C bewölkt
Ortszeit Relative Feuchte Sichtweite
Mi, 12.12. 7:00 96% 1.8 km
Mi, 12.12. 1:00 98% 1.1 km
Di, 11.12. 19:00 93% 15 km
Di, 11.12. 13:00 93% 13 km
Di, 11.12. 7:00 92% 12 km
Di, 11.12. 1:00 85% 25 km
Mo, 10.12. 19:00 88% 30 km
Mo, 10.12. 13:00 89% 2.1 km
Ortszeit Relative Feuchte Sichtweite
Mi, 12.12. 9:00 98% 0.9 km
Mi, 12.12. 8:50 98% -
Mi, 12.12. 8:40 98% -
Mi, 12.12. 8:30 97% 1.2 km
Mi, 12.12. 8:20 97% -
Mi, 12.12. 8:10 98% -
Mi, 12.12. 8:00 98% 1.4 km
Mi, 12.12. 7:30 97% 0.8 km
Mi, 12.12. 7:00 96% 1.8 km
Mi, 12.12. 6:30 97% 1.3 km
Mi, 12.12. 6:00 97% 2.1 km
Ortszeit Niederschlagsmenge Niederschlagsart
Mi, 12.12. 7:00 0.1 l/m2 in 12 Std. -
Mi, 12.12. 1:00 0.1 l/m2 in 6 Std. Regen
Di, 11.12. 19:00 2 l/m2 in 12 Std. Regen
Di, 11.12. 13:00 1 l/m2 in 6 Std. Regen
Di, 11.12. 7:00 0.4 l/m2 in 12 Std. Regen
Di, 11.12. 1:00 0.2 l/m2 in 6 Std. Regen
Mo, 10.12. 19:00 1 l/m2 in 12 Std. Regen
Mo, 10.12. 13:00 0.4 l/m2 in 6 Std. Regen
Ortszeit Niederschlagsmenge Niederschlagsart
Mi, 12.12. 9:00 0.0 l/m2 in 1 Std. -
Mi, 12.12. 8:50 keine Meldung -
Mi, 12.12. 8:40 keine Meldung -
Mi, 12.12. 8:30 0.0 l/m2 in 1 Std. -
Mi, 12.12. 8:20 keine Meldung -
Mi, 12.12. 8:10 keine Meldung -
Mi, 12.12. 8:00 0.1 l/m2 in 1 Std. Regen
Mi, 12.12. 7:30 0.0 l/m2 in 1 Std. -
Mi, 12.12. 7:00 0.0 l/m2 in 1 Std. -
Mi, 12.12. 6:30 0.0 l/m2 in 1 Std. -
Mi, 12.12. 6:00 0.0 l/m2 in 1 Std. -
Ortszeit Stärke Spitze Richtung
km/h Bft. km/h Grad Sektor
Mi, 12.12. 7:00 0 0 7 - -
Mi, 12.12. 1:00 4 1 11 270° W
Di, 11.12. 19:00 6 1 30 280° W
Di, 11.12. 13:00 7 2 29 290° W
Di, 11.12. 7:00 11 2 36 290° W
Di, 11.12. 1:00 17 3 35 280° W
Mo, 10.12. 19:00 13 3 33 280° W
Mo, 10.12. 13:00 20 4 41 290° W
Ortszeit Stärke Spitze Richtung
km/h Bft. km/h Grad Sektor
Mi, 12.12. 9:00 4 1 7 80° O
Mi, 12.12. 8:50 4 1 - 80° O
Mi, 12.12. 8:40 4 1 - 100° O
Mi, 12.12. 8:30 4 1 7 70° O
Mi, 12.12. 8:20 4 1 - 70° O
Mi, 12.12. 8:10 4 1 - 30° NO
Mi, 12.12. 8:00 4 1 7 280° W
Mi, 12.12. 7:30 4 1 7 310° NW
Mi, 12.12. 7:00 0 0 4 - -
Mi, 12.12. 6:30 4 1 4 280° W
Mi, 12.12. 6:00 0 0 7 - -
Ortszeit Untergrenze Bedeckung Gattung
total tief tief mittel hoch
Mi, 12.12. 7:00 90 m 7/8 7/8 - - -
Mi, 12.12. 1:00 1500 m 8/8 8/8 - - -
Di, 11.12. 19:00 570 m 7/8 7/8 - - -
Di, 11.12. 13:00 360 m 8/8 8/8 - - -
Di, 11.12. 7:00 300 m 8/8 8/8 - - -
Di, 11.12. 1:00 720 m 8/8 8/8 - - -
Mo, 10.12. 19:00 660 m 5/8 5/8 - - -
Mo, 10.12. 13:00 420 m 7/8 7/8 - - -
Ortszeit Bedeckungsgrad in Achtel und Wolkenuntergrenze
Mi, 12.12. 9:00 7(30m) 8(1350m)
Mi, 12.12. 8:50 7(30m) 8(1350m)
Mi, 12.12. 8:40 7(30m) 8(1350m)
Mi, 12.12. 8:30 6(30m) 8(1350m)
Mi, 12.12. 8:20 6(30m) 8(1350m)
Mi, 12.12. 8:10 3(60m) 8(1290m)
Mi, 12.12. 8:00 7(1050m) 8(1440m) 8(1350m)
Mi, 12.12. 7:30 3(90m) 6(900m) 7(1470m)
Mi, 12.12. 7:00 3(90m) 6(840m) 7(1470m)
Mi, 12.12. 6:30 3(120m) 7(540m) 8(1440m)
Mi, 12.12. 6:00 1(120m) 6(480m) 7(1410m)
Ortszeit Luftdruck NN (hPa) Tendenz (hPa in 3 Std.)
Mi, 12.12. 7:00 1025 + 0,1
Mi, 12.12. 1:00 1025 + 0,2
Di, 11.12. 19:00 1024 + 0,4
Di, 11.12. 13:00 1024 + 0,1
Di, 11.12. 7:00 1024 + 0,2
Di, 11.12. 1:00 1024 + 0,1
Mo, 10.12. 19:00 1023 + 1,2
Mo, 10.12. 13:00 1022 + 0,4
Ortszeit Luftdruck NN (hPa) Tendenz (hPa in 3 Std.)
Mi, 12.12. 9:00 1026 + 0,6
Mi, 12.12. 8:50 1026 keine Meldung
Mi, 12.12. 8:40 1026 keine Meldung
Mi, 12.12. 8:30 1026 + 0,5
Mi, 12.12. 8:20 1026 keine Meldung
Mi, 12.12. 8:10 1026 keine Meldung
Mi, 12.12. 8:00 1026 + 0,3
Mi, 12.12. 7:30 1025 + 0,1
Mi, 12.12. 7:00 1025 + 0,1
Mi, 12.12. 6:30 1025 0,0
Mi, 12.12. 6:00 1025 + 0,2
Ortszeit Schneehöhe (cm)
Mi, 12.12. 7:00 0
Mi, 12.12. 1:00 0
Di, 11.12. 19:00 0
Di, 11.12. 13:00 0
Di, 11.12. 7:00 0
Di, 11.12. 1:00 0
Mo, 10.12. 19:00 0
Mo, 10.12. 13:00 0
Ortszeit Schneehöhe (cm)
Mi, 12.12. 9:00 0
Mi, 12.12. 8:50 0
Mi, 12.12. 8:40 0
Mi, 12.12. 8:30 0
Mi, 12.12. 8:20 0
Mi, 12.12. 8:10 0
Mi, 12.12. 8:00 0
Mi, 12.12. 7:30 0
Mi, 12.12. 7:00 0
Mi, 12.12. 6:30 0
Mi, 12.12. 6:00 0
Link zu dieser Seite / Seite empfehlen

Das Wetter in ...